Погода в Глобино

Украина / Полтавская область     49°22′47″N   33°16′15″E
темп.,
°C
ветер,
м/с
пор.,
м/с
влажн.,
%
обл.,
%
осадки,
мм/ч
давл.,
гПа
погр.,
м
8 мая, сб
сб800:00+14ююз41070100 0.2 1010307
03:00+11ююв41193100 2.8 1008366
06:00+12ю71386100 0.1 1006646
09:00+12ююз61195100 3.9 1005637
12:00+11з61093100 5.3 1007687
15:00+10зсз81179100 5.5 10101070
18:00+11зсз9117244 0.2 10121347
21:00+6сз6128631 0.2 1016717
9 мая, вс
вс900:00+4зсз512875 0.0 1017412
03:00+4сз512933 0.0 1018420
06:00+3сз512890 0.0 1020348
09:00+8сз69610 0.0 1022870
12:00+12сз7105089 0.0 10232158
15:00+13сз8104591 0.0 10232511
18:00+12сз685656 0.1 10251512
21:00+7ссз33715 0.2 102729
10 мая, пн
пн1000:00+5ссз22725 0.0 102816
03:00+4с33737 0.0 102824
06:00+4ссв337422 0.0 103044
09:00+11ссв34540 0.0 1030498
12:00+14ссв45415 0.0 10291813
15:00+15с56425 0.0 10281951
18:00+15ссв57535 0.0 10261725
21:00+9с47740 0.0 1027105
11 мая, вт
вт1100:00+7с4980100 0.0 1026167
03:00+7ссз5127690 0.0 1025267
06:00+8с61369100 0.0 1023400
09:00+10с61267100 0.0 1022457
12:00+14св61067100 0.0 1021902
15:00+13всв71276100 0.0 1020956
18:00+13всв6974100 0.1 10211176
21:00+8всв49854 0.1 1021208
12 мая, ср
ср1200:00+7св513903 0.0 1020318
03:00+6св4991100 0.0 1018260
06:00+8св5981100 0.0 1017602
09:00+9всв687969 0.1 1017858
12:00+11в687166 0.6 10151140
15:00+9вюв5991100 2.9 1015627
18:00+9всв359131 1.4 1014352
21:00+7вюв33925 1.9 101446